Time,TemperatureF,DewpointF,PressureIn,WindDirection,WindDirectionDegrees,WindSpeedMPH,WindSpeedGustMPH,Humidity,HourlyPrecipIn,Conditions,Clouds,dailyrainin,SoftwareType,DateUTC
2013-06-20 00:01:00,56.3,48.5,30.24,South,189,0.0,0.0,75,0.00,,,0.00,WeatherCatV1.12B45,2013-06-20 04:01:00,
2013-06-20 00:06:00,56.3,48.8,30.24,South,189,0.0,0.0,76,0.00,,,0.00,WeatherCatV1.12B45,2013-06-20 04:06:00,
2013-06-20 00:11:00,56.3,49.2,30.24,South,188,0.0,0.0,77,0.00,,,0.00,WeatherCatV1.12B45,2013-06-20 04:11:00,
2013-06-20 00:16:00,56.2,48.7,30.24,South,188,0.0,0.0,76,0.00,,,0.00,WeatherCatV1.12B45,2013-06-20 04:16:00,
2013-06-20 00:21:00,56.2,49.4,30.24,South,188,0.0,0.0,78,0.00,,,0.00,WeatherCatV1.12B45,2013-06-20 04:21:00,
2013-06-20 00:26:00,56.2,49.4,30.24,South,188,0.0,0.0,78,0.00,,,0.00,WeatherCatV1.12B45,2013-06-20 04:26:00,
2013-06-20 00:31:00,56.1,50.0,30.24,South,188,0.0,0.0,80,0.00,,,0.00,WeatherCatV1.12B45,2013-06-20 04:31:00,
2013-06-20 00:36:00,56.1,49.3,30.25,South,188,0.0,0.0,78,0.00,,,0.00,WeatherCatV1.12B45,2013-06-20 04:36:00,
2013-06-20 00:41:00,56.1,49.7,30.24,South,188,0.0,0.0,79,0.00,,,0.00,WeatherCatV1.12B45,2013-06-20 04:41:00,
2013-06-20 00:46:00,55.9,49.8,30.24,South,188,0.0,0.0,80,0.00,,,0.00,WeatherCatV1.12B45,2013-06-20 04:46:00,
2013-06-20 00:51:00,55.8,49.0,30.24,South,188,0.0,0.0,78,0.00,,,0.00,WeatherCatV1.12B45,2013-06-20 04:51:00,
2013-06-20 00:56:00,55.7,49.3,30.24,South,188,0.0,0.0,79,0.00,,,0.00,WeatherCatV1.12B45,2013-06-20 04:56:00,
2013-06-20 01:01:00,55.5,49.1,30.24,South,188,0.0,0.0,79,0.00,,,0.00,WeatherCatV1.12B45,2013-06-20 05:01:00,
2013-06-20 01:06:00,55.3,49.2,30.24,South,188,0.0,0.0,80,0.00,,,0.00,WeatherCatV1.12B45,2013-06-20 05:06:00,
2013-06-20 01:11:00,55.1,49.7,30.24,South,188,0.0,0.0,82,0.00,,,0.00,WeatherCatV1.12B45,2013-06-20 05:11:00,
2013-06-20 01:16:00,55.0,49.6,30.24,South,188,0.0,0.0,82,0.00,,,0.00,WeatherCatV1.12B45,2013-06-20 05:16:00,
2013-06-20 01:21:00,54.8,49.4,30.25,South,188,0.0,0.0,82,0.00,,,0.00,WeatherCatV1.12B45,2013-06-20 05:21:00,
2013-06-20 01:26:00,54.6,49.2,30.25,South,189,0.0,0.0,82,0.00,,,0.00,WeatherCatV1.12B45,2013-06-20 05:26:00,
2013-06-20 01:31:00,54.4,49.3,30.25,South,188,0.0,0.0,83,0.00,,,0.00,WeatherCatV1.12B45,2013-06-20 05:31:00,
2013-06-20 01:36:00,54.3,49.2,30.25,South,188,0.0,0.0,83,0.00,,,0.00,WeatherCatV1.12B45,2013-06-20 05:36:00,
2013-06-20 01:41:00,54.1,49.1,30.26,South,189,0.0,0.0,83,0.00,,,0.00,WeatherCatV1.12B45,2013-06-20 05:41:00,
2013-06-20 01:46:00,54.0,49.3,30.25,South,188,0.0,0.0,84,0.00,,,0.00,WeatherCatV1.12B45,2013-06-20 05:46:00,
2013-06-20 01:51:00,53.8,48.8,30.26,South,188,0.0,0.0,83,0.00,,,0.00,WeatherCatV1.12B45,2013-06-20 05:51:00,
2013-06-20 01:56:00,53.7,48.7,30.26,South,188,0.0,0.0,83,0.00,,,0.00,WeatherCatV1.12B45,2013-06-20 05:56:00,
2013-06-20 02:01:00,53.6,48.9,30.26,South,188,0.0,0.0,84,0.00,,,0.00,WeatherCatV1.12B45,2013-06-20 06:01:00,
2013-06-20 02:06:00,53.4,49.0,30.26,South,188,0.0,0.0,85,0.00,,,0.00,WeatherCatV1.12B45,2013-06-20 06:06:00,
2013-06-20 02:11:00,53.3,49.2,30.26,South,188,0.0,0.0,86,0.00,,,0.00,WeatherCatV1.12B45,2013-06-20 06:11:00,
2013-06-20 02:16:00,53.2,49.1,30.26,South,188,0.0,0.0,86,0.00,,,0.00,WeatherCatV1.12B45,2013-06-20 06:16:00,
2013-06-20 02:21:00,53.1,49.0,30.26,South,188,0.0,0.0,86,0.00,,,0.00,WeatherCatV1.12B45,2013-06-20 06:21:00,
2013-06-20 02:26:00,52.9,49.1,30.26,South,188,0.0,0.0,87,0.00,,,0.00,WeatherCatV1.12B45,2013-06-20 06:26:00,
2013-06-20 02:31:00,52.8,49.0,30.26,South,188,0.0,0.0,87,0.00,,,0.00,WeatherCatV1.12B45,2013-06-20 06:31:00,
2013-06-20 02:36:00,52.8,49.0,30.26,South,188,0.0,0.0,87,0.00,,,0.00,WeatherCatV1.12B45,2013-06-20 06:36:00,
2013-06-20 02:41:00,52.7,49.2,30.26,South,188,0.0,0.0,88,0.00,,,0.00,WeatherCatV1.12B45,2013-06-20 06:41:00,
2013-06-20 02:46:00,52.6,48.8,30.26,South,188,0.0,0.0,87,0.00,,,0.00,WeatherCatV1.12B45,2013-06-20 06:46:00,
2013-06-20 02:51:00,52.5,48.7,30.26,South,188,0.0,0.0,87,0.00,,,0.00,WeatherCatV1.12B45,2013-06-20 06:51:00,
2013-06-20 02:56:00,52.5,49.0,30.26,South,188,0.0,0.0,88,0.00,,,0.00,WeatherCatV1.12B45,2013-06-20 06:56:00,
2013-06-20 03:01:00,52.5,49.0,30.26,South,188,0.0,0.0,88,0.00,,,0.00,WeatherCatV1.12B45,2013-06-20 07:01:00,
2013-06-20 03:06:00,52.5,49.0,30.27,South,188,0.0,0.0,88,0.00,,,0.00,WeatherCatV1.12B45,2013-06-20 07:06:00,
2013-06-20 03:11:00,52.4,49.0,30.27,South,188,0.0,0.0,88,0.00,,,0.00,WeatherCatV1.12B45,2013-06-20 07:11:00,
2013-06-20 03:16:00,52.3,49.2,30.27,South,188,0.0,0.0,89,0.00,,,0.00,WeatherCatV1.12B45,2013-06-20 07:16:00,
2013-06-20 03:21:00,52.3,49.2,30.27,South,188,0.0,0.0,89,0.00,,,0.00,WeatherCatV1.12B45,2013-06-20 07:21:00,
2013-06-20 03:26:00,52.2,49.4,30.27,South,188,0.0,0.0,90,0.00,,,0.00,WeatherCatV1.12B45,2013-06-20 07:26:00,
2013-06-20 03:31:00,52.1,49.3,30.27,South,188,0.0,0.0,90,0.00,,,0.00,WeatherCatV1.12B45,2013-06-20 07:31:00,
2013-06-20 03:36:00,52.1,49.3,30.27,South,188,0.0,0.0,90,0.00,,,0.00,WeatherCatV1.12B45,2013-06-20 07:36:00,
2013-06-20 03:41:00,52.1,49.3,30.27,South,188,0.0,0.0,90,0.00,,,0.00,WeatherCatV1.12B45,2013-06-20 07:41:00,
2013-06-20 03:46:00,52.0,49.2,30.27,South,188,0.0,0.0,90,0.00,,,0.00,WeatherCatV1.12B45,2013-06-20 07:46:00,
2013-06-20 03:51:00,51.8,49.0,30.27,South,188,0.0,0.0,90,0.00,,,0.00,WeatherCatV1.12B45,2013-06-20 07:51:00,
2013-06-20 03:56:00,51.7,48.9,30.27,South,188,0.0,0.0,90,0.00,,,0.00,WeatherCatV1.12B45,2013-06-20 07:56:00,
2013-06-20 04:01:00,51.4,48.6,30.27,South,189,0.0,0.0,90,0.00,,,0.00,WeatherCatV1.12B45,2013-06-20 08:01:00,
2013-06-20 04:06:00,51.2,48.4,30.27,South,188,0.0,0.0,90,0.00,,,0.00,WeatherCatV1.12B45,2013-06-20 08:06:00,
2013-06-20 04:11:00,51.0,48.2,30.27,South,188,0.0,0.0,90,0.00,,,0.00,WeatherCatV1.12B45,2013-06-20 08:11:00,
2013-06-20 04:16:00,50.9,48.1,30.28,South,188,0.0,0.0,90,0.00,,,0.00,WeatherCatV1.12B45,2013-06-20 08:16:00,
2013-06-20 04:21:00,50.8,48.0,30.28,South,188,0.0,0.0,90,0.00,,,0.00,WeatherCatV1.12B45,2013-06-20 08:21:00,
2013-06-20 04:26:00,50.7,48.2,30.28,South,188,0.0,0.0,91,0.00,,,0.00,WeatherCatV1.12B45,2013-06-20 08:26:00,
2013-06-20 04:31:00,50.6,48.1,30.28,South,188,0.0,0.0,91,0.00,,,0.00,WeatherCatV1.12B45,2013-06-20 08:31:00,
2013-06-20 04:36:00,50.5,48.0,30.28,South,188,0.0,0.0,91,0.00,,,0.00,WeatherCatV1.12B45,2013-06-20 08:36:00,
2013-06-20 04:41:00,50.4,48.2,30.28,South,188,0.0,0.0,92,0.00,,,0.00,WeatherCatV1.12B45,2013-06-20 08:41:00,
2013-06-20 04:46:00,50.3,48.1,30.28,South,188,0.0,0.0,92,0.00,,,0.00,WeatherCatV1.12B45,2013-06-20 08:46:00,
2013-06-20 04:51:00,50.3,48.1,30.28,South,188,0.0,0.0,92,0.00,,,0.00,WeatherCatV1.12B45,2013-06-20 08:51:00,
2013-06-20 04:56:00,50.3,48.4,30.28,South,189,0.0,0.0,93,0.00,,,0.00,WeatherCatV1.12B45,2013-06-20 08:56:00,
2013-06-20 05:01:00,50.3,48.4,30.28,South,188,0.0,0.0,93,0.00,,,0.00,WeatherCatV1.12B45,2013-06-20 09:01:00,
2013-06-20 05:02:00,50.3,48.4,30.28,South,189,0.0,0.0,93,0.00,,,0.00,WeatherCatV1.12B45,2013-06-20 09:02:00,
2013-06-20 05:07:00,50.3,48.6,30.29,South,188,0.0,0.0,94,0.00,,,0.00,WeatherCatV1.12B45,2013-06-20 09:07:00,
2013-06-20 05:12:00,50.3,48.6,30.29,South,188,0.0,0.0,94,0.00,,,0.00,WeatherCatV1.12B45,2013-06-20 09:12:00,
2013-06-20 05:17:00,50.3,48.6,30.29,South,189,0.0,0.0,94,0.00,,,0.00,WeatherCatV1.12B45,2013-06-20 09:17:00,
2013-06-20 05:22:00,50.3,48.6,30.29,South,188,0.0,0.0,94,0.00,,,0.00,WeatherCatV1.12B45,2013-06-20 09:22:00,
2013-06-20 05:27:00,50.2,48.5,30.29,South,188,0.0,0.0,94,0.00,,,0.00,WeatherCatV1.12B45,2013-06-20 09:27:00,
2013-06-20 05:32:00,50.1,48.4,30.30,South,189,0.0,0.0,94,0.00,,,0.00,WeatherCatV1.12B45,2013-06-20 09:32:00,
2013-06-20 05:37:00,50.0,48.3,30.30,South,188,0.0,0.0,94,0.00,,,0.00,WeatherCatV1.12B45,2013-06-20 09:37:00,
2013-06-20 05:42:00,50.0,48.3,30.30,South,188,0.0,0.0,94,0.00,,,0.00,WeatherCatV1.12B45,2013-06-20 09:42:00,
2013-06-20 05:47:00,50.0,48.6,30.30,South,188,0.0,0.0,95,0.00,,,0.00,WeatherCatV1.12B45,2013-06-20 09:47:00,
2013-06-20 05:52:00,50.0,48.6,30.30,South,189,0.0,0.0,95,0.00,,,0.00,WeatherCatV1.12B45,2013-06-20 09:52:00,
2013-06-20 05:57:00,50.0,48.6,30.30,South,188,0.0,0.0,95,0.00,,,0.00,WeatherCatV1.12B45,2013-06-20 09:57:00,
2013-06-20 06:02:00,50.1,48.7,30.30,South,188,0.0,0.0,95,0.00,,,0.00,WeatherCatV1.12B45,2013-06-20 10:02:00,
2013-06-20 06:07:00,50.1,48.7,30.31,South,188,0.0,0.0,95,0.00,,,0.00,WeatherCatV1.12B45,2013-06-20 10:07:00,
2013-06-20 06:12:00,50.1,48.7,30.31,South,188,0.0,0.0,95,0.00,,,0.00,WeatherCatV1.12B45,2013-06-20 10:12:00,
2013-06-20 06:17:00,50.1,48.7,30.31,South,188,0.0,0.0,95,0.00,,,0.00,WeatherCatV1.12B45,2013-06-20 10:17:00,
2013-06-20 06:22:00,50.1,48.7,30.31,South,188,0.0,0.0,95,0.00,,,0.00,WeatherCatV1.12B45,2013-06-20 10:22:00,
2013-06-20 06:27:00,50.3,48.9,30.31,South,189,0.0,0.0,95,0.00,,,0.00,WeatherCatV1.12B45,2013-06-20 10:27:00,
2013-06-20 06:32:00,50.3,48.9,30.32,South,188,0.0,0.0,95,0.00,,,0.00,WeatherCatV1.12B45,2013-06-20 10:32:00,
2013-06-20 06:37:00,50.5,49.4,30.32,South,188,0.0,0.0,96,0.00,,,0.00,WeatherCatV1.12B45,2013-06-20 10:37:00,
2013-06-20 06:42:00,50.7,49.6,30.32,South,188,0.0,0.0,96,0.00,,,0.00,WeatherCatV1.12B45,2013-06-20 10:42:00,
2013-06-20 06:47:00,50.9,49.8,30.32,South,188,0.0,0.0,96,0.00,,,0.00,WeatherCatV1.12B45,2013-06-20 10:47:00,
2013-06-20 06:52:00,51.0,49.9,30.32,South,188,0.0,0.0,96,0.00,,,0.00,WeatherCatV1.12B45,2013-06-20 10:52:00,
2013-06-20 06:57:00,51.2,50.1,30.32,South,188,0.0,0.0,96,0.00,,,0.00,WeatherCatV1.12B45,2013-06-20 10:57:00,
2013-06-20 07:02:00,51.4,50.3,30.32,South,188,0.0,0.0,96,0.00,,,0.00,WeatherCatV1.12B45,2013-06-20 11:02:00,
2013-06-20 07:07:00,51.7,50.6,30.32,South,188,0.0,0.0,96,0.00,,,0.00,WeatherCatV1.12B45,2013-06-20 11:07:00,
2013-06-20 07:12:00,51.8,50.7,30.32,South,188,0.0,0.0,96,0.00,,,0.00,WeatherCatV1.12B45,2013-06-20 11:12:00,
2013-06-20 07:17:00,52.1,51.0,30.32,South,188,0.0,0.0,96,0.00,,,0.00,WeatherCatV1.12B45,2013-06-20 11:17:00,
2013-06-20 07:22:00,52.5,51.4,30.32,South,188,0.0,0.0,96,0.00,,,0.00,WeatherCatV1.12B45,2013-06-20 11:22:00,
2013-06-20 07:27:00,52.8,51.4,30.32,South,188,0.0,0.0,95,0.00,,,0.00,WeatherCatV1.12B45,2013-06-20 11:27:00,
2013-06-20 07:32:00,53.1,51.7,30.32,South,189,0.0,0.0,95,0.00,,,0.00,WeatherCatV1.12B45,2013-06-20 11:32:00,
2013-06-20 07:37:00,53.3,51.9,30.33,South,188,0.0,0.0,95,0.00,,,0.00,WeatherCatV1.12B45,2013-06-20 11:37:00,
2013-06-20 07:42:00,53.7,52.3,30.32,South,188,0.0,0.0,95,0.00,,,0.00,WeatherCatV1.12B45,2013-06-20 11:42:00,
2013-06-20 07:47:00,54.1,52.4,30.32,South,188,0.0,0.0,94,0.00,,,0.00,WeatherCatV1.12B45,2013-06-20 11:47:00,
2013-06-20 07:52:00,54.6,52.9,30.32,South,188,0.0,0.0,94,0.00,,,0.00,WeatherCatV1.12B45,2013-06-20 11:52:00,
2013-06-20 07:57:00,54.9,52.9,30.32,South,189,0.0,0.0,93,0.00,,,0.00,WeatherCatV1.12B45,2013-06-20 11:57:00,
2013-06-20 08:02:00,55.3,53.3,30.33,South,188,0.0,0.0,93,0.00,,,0.00,WeatherCatV1.12B45,2013-06-20 12:02:00,
2013-06-20 08:07:00,56.0,53.7,30.33,South,188,0.0,0.0,92,0.00,,,0.00,WeatherCatV1.12B45,2013-06-20 12:07:00,
2013-06-20 08:12:00,56.5,53.9,30.33,South,188,0.0,0.0,91,0.00,,,0.00,WeatherCatV1.12B45,2013-06-20 12:12:00,
2013-06-20 08:17:00,57.0,54.1,30.33,South,188,0.0,0.0,90,0.00,,,0.00,WeatherCatV1.12B45,2013-06-20 12:17:00,
2013-06-20 08:22:00,57.6,54.4,30.33,South,188,0.0,0.0,89,0.00,,,0.00,WeatherCatV1.12B45,2013-06-20 12:22:00,
2013-06-20 08:27:00,58.1,54.9,30.33,South,188,0.0,0.0,89,0.00,,,0.00,WeatherCatV1.12B45,2013-06-20 12:27:00,
2013-06-20 08:32:00,58.6,55.1,30.33,South,188,0.0,0.0,88,0.00,,,0.00,WeatherCatV1.12B45,2013-06-20 12:32:00,
2013-06-20 08:37:00,59.0,55.1,30.33,South,188,0.0,0.0,87,0.00,,,0.00,WeatherCatV1.12B45,2013-06-20 12:37:00,
2013-06-20 08:42:00,59.6,55.1,30.33,South,188,0.0,0.0,85,0.00,,,0.00,WeatherCatV1.12B45,2013-06-20 12:42:00,
2013-06-20 08:47:00,60.1,54.9,30.33,South,189,0.0,0.0,83,0.00,,,0.00,WeatherCatV1.12B45,2013-06-20 12:47:00,
2013-06-20 08:52:00,60.7,54.8,30.33,South,188,0.0,0.0,81,0.00,,,0.00,WeatherCatV1.12B45,2013-06-20 12:52:00,
2013-06-20 08:57:00,61.2,55.0,30.33,South,188,0.0,0.0,80,0.00,,,0.00,WeatherCatV1.12B45,2013-06-20 12:57:00,
2013-06-20 09:02:00,61.5,55.3,30.33,South,188,0.0,0.0,80,0.00,,,0.00,WeatherCatV1.12B45,2013-06-20 13:02:00,
2013-06-20 09:07:00,62.0,55.8,30.33,WSW,240,0.0,0.0,80,0.00,,,0.00,WeatherCatV1.12B45,2013-06-20 13:07:00,
2013-06-20 09:12:00,62.4,56.1,30.32,WSW,240,0.0,0.0,80,0.00,,,0.00,WeatherCatV1.12B45,2013-06-20 13:12:00,
2013-06-20 09:17:00,62.8,56.2,30.32,WSW,240,0.0,0.0,79,0.00,,,0.00,WeatherCatV1.12B45,2013-06-20 13:17:00,
2013-06-20 09:22:00,63.2,56.9,30.32,ESE,117,0.0,1.0,80,0.00,,,0.00,WeatherCatV1.12B45,2013-06-20 13:22:00,
2013-06-20 09:27:00,63.7,56.3,30.32,ESE,117,0.0,1.0,77,0.00,,,0.00,WeatherCatV1.12B45,2013-06-20 13:27:00,
2013-06-20 09:32:00,64.1,56.4,30.32,ESE,116,0.0,0.0,76,0.00,,,0.00,WeatherCatV1.12B45,2013-06-20 13:32:00,
2013-06-20 09:37:00,64.5,56.4,30.32,South,191,0.0,0.0,75,0.00,,,0.00,WeatherCatV1.12B45,2013-06-20 13:37:00,
2013-06-20 09:42:00,65.0,56.9,30.32,WSW,257,1.0,1.0,75,0.00,,,0.00,WeatherCatV1.12B45,2013-06-20 13:42:00,
2013-06-20 09:47:00,65.4,56.9,30.32,WSW,257,0.0,0.0,74,0.00,,,0.00,WeatherCatV1.12B45,2013-06-20 13:47:00,
2013-06-20 09:52:00,65.7,57.2,30.32,ESE,122,0.0,0.0,74,0.00,,,0.00,WeatherCatV1.12B45,2013-06-20 13:52:00,
2013-06-20 09:57:00,66.1,56.8,30.32,WNW,292,0.0,0.0,72,0.00,,,0.00,WeatherCatV1.12B45,2013-06-20 13:57:00,
2013-06-20 10:02:00,66.4,56.7,30.32,NE,56,0.0,2.0,71,0.00,,,0.00,WeatherCatV1.12B45,2013-06-20 14:02:00,
2013-06-20 10:07:00,67.0,56.9,30.32,NW,310,0.0,1.0,70,0.00,,,0.00,WeatherCatV1.12B45,2013-06-20 14:07:00,
2013-06-20 10:12:00,67.3,56.8,30.32,WNW,295,0.0,0.0,69,0.00,,,0.00,WeatherCatV1.12B45,2013-06-20 14:12:00,
2013-06-20 10:17:00,67.6,57.1,30.32,WNW,295,0.0,1.0,69,0.00,,,0.00,WeatherCatV1.12B45,2013-06-20 14:17:00,
2013-06-20 10:22:00,67.8,56.4,30.32,WNW,295,1.0,1.0,67,0.00,,,0.00,WeatherCatV1.12B45,2013-06-20 14:22:00,
2013-06-20 10:27:00,68.0,57.4,30.32,WNW,295,0.0,0.0,69,0.00,,,0.00,WeatherCatV1.12B45,2013-06-20 14:27:00,
2013-06-20 10:32:00,68.7,57.7,30.32,NW,309,0.0,0.0,68,0.00,,,0.00,WeatherCatV1.12B45,2013-06-20 14:32:00,
2013-06-20 10:37:00,69.5,58.0,30.32,NW,324,0.0,0.0,67,0.00,,,0.00,WeatherCatV1.12B45,2013-06-20 14:37:00,
2013-06-20 10:42:00,70.1,57.3,30.33,NW,324,0.0,1.0,64,0.00,,,0.00,WeatherCatV1.12B45,2013-06-20 14:42:00,
2013-06-20 10:47:00,70.4,56.7,30.33,NNW,347,0.0,2.0,62,0.00,,,0.00,WeatherCatV1.12B45,2013-06-20 14:47:00,
2013-06-20 10:52:00,71.1,57.4,30.33,SSE,153,1.0,2.0,62,0.00,,,0.00,WeatherCatV1.12B45,2013-06-20 14:52:00,
2013-06-20 10:57:00,71.7,56.6,30.33,SSE,148,0.0,3.0,59,0.00,,,0.00,WeatherCatV1.12B45,2013-06-20 14:57:00,
2013-06-20 11:02:00,72.4,58.2,30.33,South,176,0.0,2.0,61,0.00,,,0.00,WeatherCatV1.12B45,2013-06-20 15:02:00,
2013-06-20 11:07:00,72.7,56.1,30.33,SSE,158,0.0,1.0,56,0.00,,,0.00,WeatherCatV1.12B45,2013-06-20 15:07:00,
2013-06-20 11:12:00,73.1,56.9,30.33,NW,312,1.0,2.0,57,0.00,,,0.00,WeatherCatV1.12B45,2013-06-20 15:12:00,
2013-06-20 11:17:00,73.4,55.7,30.33,SE,134,0.0,1.0,54,0.00,,,0.00,WeatherCatV1.12B45,2013-06-20 15:17:00,
2013-06-20 11:22:00,73.7,55.5,30.33,NW,320,1.0,4.0,53,0.00,,,0.00,WeatherCatV1.12B45,2013-06-20 15:22:00,
2013-06-20 11:27:00,73.8,52.3,30.33,ESE,120,0.0,1.0,47,0.00,,,0.00,WeatherCatV1.12B45,2013-06-20 15:27:00,
2013-06-20 11:33:00,74.4,54.0,30.33,North,11,0.0,1.0,49,0.00,,,0.00,WeatherCatV1.12B45,2013-06-20 15:33:00,
2013-06-20 11:38:00,74.6,52.4,30.33,NNW,332,0.0,0.0,46,0.00,,,0.00,WeatherCatV1.12B45,2013-06-20 15:38:00,
2013-06-20 11:43:00,75.7,54.0,30.33,NW,318,0.0,0.0,47,0.00,,,0.00,WeatherCatV1.12B45,2013-06-20 15:43:00,
2013-06-20 11:48:00,76.5,52.9,30.33,WNW,299,2.0,4.0,44,0.00,,,0.00,WeatherCatV1.12B45,2013-06-20 15:48:00,
2013-06-20 11:53:00,76.2,52.7,30.33,South,176,0.0,0.0,44,0.00,,,0.00,WeatherCatV1.12B45,2013-06-20 15:53:00,
2013-06-20 11:58:00,76.3,53.4,30.33,East,82,0.0,1.0,45,0.00,,,0.00,WeatherCatV1.12B45,2013-06-20 15:58:00,
2013-06-20 12:03:00,76.1,53.8,30.33,ENE,75,0.0,0.0,46,0.00,,,0.00,WeatherCatV1.12B45,2013-06-20 16:03:00,
2013-06-20 12:08:00,76.4,52.2,30.33,WSW,255,1.0,1.0,43,0.00,,,0.00,WeatherCatV1.12B45,2013-06-20 16:08:00,
2013-06-20 12:13:00,76.8,51.9,30.33,SE,141,0.0,1.0,42,0.00,,,0.00,WeatherCatV1.12B45,2013-06-20 16:13:00,
2013-06-20 12:18:00,76.9,52.0,30.33,East,85,0.0,2.0,42,0.00,,,0.00,WeatherCatV1.12B45,2013-06-20 16:18:00,
2013-06-20 12:23:00,76.6,53.6,30.32,East,82,0.0,1.0,45,0.00,,,0.00,WeatherCatV1.12B45,2013-06-20 16:23:00,
2013-06-20 12:28:00,76.2,53.9,30.32,ESE,107,1.0,1.0,46,0.00,,,0.00,WeatherCatV1.12B45,2013-06-20 16:28:00,
2013-06-20 12:33:00,76.9,55.7,30.32,NNE,30,1.0,1.0,48,0.00,,,0.00,WeatherCatV1.12B45,2013-06-20 16:33:00,
2013-06-20 12:38:00,76.6,53.0,30.32,ESE,103,0.0,0.0,44,0.00,,,0.00,WeatherCatV1.12B45,2013-06-20 16:38:00,
2013-06-20 12:43:00,76.1,52.0,30.32,North,353,0.0,2.0,43,0.00,,,0.00,WeatherCatV1.12B45,2013-06-20 16:43:00,
2013-06-20 12:48:00,76.0,53.7,30.32,NNW,339,0.0,0.0,46,0.00,,,0.00,WeatherCatV1.12B45,2013-06-20 16:48:00,
2013-06-20 12:53:00,76.2,55.1,30.32,NNE,26,0.0,0.0,48,0.00,,,0.00,WeatherCatV1.12B45,2013-06-20 16:53:00,
2013-06-20 12:58:00,75.7,54.0,30.32,NE,41,0.0,2.0,47,0.00,,,0.00,WeatherCatV1.12B45,2013-06-20 16:58:00,
2013-06-20 13:03:00,75.4,53.7,30.32,East,82,0.0,1.0,47,0.00,,,0.00,WeatherCatV1.12B45,2013-06-20 17:03:00,
2013-06-20 13:08:00,76.1,55.0,30.32,ESE,103,0.0,1.0,48,0.00,,,0.00,WeatherCatV1.12B45,2013-06-20 17:08:00,
2013-06-20 13:13:00,76.1,56.1,30.32,WNW,291,0.0,0.0,50,0.00,,,0.00,WeatherCatV1.12B45,2013-06-20 17:13:00,
2013-06-20 13:18:00,76.1,54.4,30.32,WNW,301,0.0,2.0,47,0.00,,,0.00,WeatherCatV1.12B45,2013-06-20 17:18:00,
2013-06-20 13:23:00,76.8,54.4,30.32,NNW,346,0.0,4.0,46,0.00,,,0.00,WeatherCatV1.12B45,2013-06-20 17:23:00,
2013-06-20 13:28:00,77.0,53.4,30.31,East,98,0.0,3.0,44,0.00,,,0.00,WeatherCatV1.12B45,2013-06-20 17:28:00,
2013-06-20 13:33:00,77.4,54.4,30.31,ENE,62,0.0,2.0,45,0.00,,,0.00,WeatherCatV1.12B45,2013-06-20 17:33:00,
2013-06-20 13:38:00,78.0,53.7,30.31,NE,42,0.0,1.0,43,0.00,,,0.00,WeatherCatV1.12B45,2013-06-20 17:38:00,
2013-06-20 13:43:00,78.5,54.7,30.31,ESE,108,0.0,2.0,44,0.00,,,0.00,WeatherCatV1.12B45,2013-06-20 17:43:00,
2013-06-20 13:48:00,78.6,54.2,30.31,ESE,107,2.0,2.0,43,0.00,,,0.00,WeatherCatV1.12B45,2013-06-20 17:48:00,
2013-06-20 13:53:00,78.5,54.7,30.31,North,5,2.0,2.0,44,0.00,,,0.00,WeatherCatV1.12B45,2013-06-20 17:53:00,
2013-06-20 13:58:00,79.1,55.3,30.31,East,94,0.0,2.0,44,0.00,,,0.00,WeatherCatV1.12B45,2013-06-20 17:58:00,
2013-06-20 14:03:00,79.0,51.2,30.31,SE,141,1.0,2.0,38,0.00,,,0.00,WeatherCatV1.12B45,2013-06-20 18:03:00,
2013-06-20 14:08:00,78.1,52.5,30.31,SE,141,0.0,1.0,41,0.00,,,0.00,WeatherCatV1.12B45,2013-06-20 18:08:00,
2013-06-20 14:13:00,77.7,53.4,30.31,NW,307,0.0,0.0,43,0.00,,,0.00,WeatherCatV1.12B45,2013-06-20 18:13:00,
2013-06-20 14:18:00,78.3,53.3,30.31,ESE,117,0.0,2.0,42,0.00,,,0.00,WeatherCatV1.12B45,2013-06-20 18:18:00,
2013-06-20 14:23:00,77.6,55.8,30.31,East,91,0.0,1.0,47,0.00,,,0.00,WeatherCatV1.12B45,2013-06-20 18:23:00,
2013-06-20 14:28:00,78.2,54.5,30.31,ESE,110,0.0,1.0,44,0.00,,,0.00,WeatherCatV1.12B45,2013-06-20 18:28:00,
2013-06-20 14:33:00,78.9,54.5,30.30,NW,307,1.0,2.0,43,0.00,,,0.00,WeatherCatV1.12B45,2013-06-20 18:33:00,
2013-06-20 14:38:00,79.4,53.6,30.30,NW,319,1.0,3.0,41,0.00,,,0.00,WeatherCatV1.12B45,2013-06-20 18:38:00,
2013-06-20 14:43:00,78.8,53.1,30.30,WNW,285,0.0,1.0,41,0.00,,,0.00,WeatherCatV1.12B45,2013-06-20 18:43:00,
2013-06-20 14:48:00,79.0,53.3,30.30,West,277,0.0,1.0,41,0.00,,,0.00,WeatherCatV1.12B45,2013-06-20 18:48:00,
2013-06-20 14:53:00,78.7,53.7,30.30,North,349,0.0,1.0,42,0.00,,,0.00,WeatherCatV1.12B45,2013-06-20 18:53:00,
2013-06-20 14:58:00,77.5,51.9,30.30,ESE,102,0.0,1.0,41,0.00,,,0.00,WeatherCatV1.12B45,2013-06-20 18:58:00,
2013-06-20 15:03:00,76.4,54.7,30.30,NW,316,1.0,2.0,47,0.00,,,0.00,WeatherCatV1.12B45,2013-06-20 19:03:00,
2013-06-20 15:08:00,76.8,55.6,30.30,NW,316,0.0,0.0,48,0.00,,,0.00,WeatherCatV1.12B45,2013-06-20 19:08:00,
2013-06-20 15:13:00,77.9,54.8,30.30,West,274,1.0,2.0,45,0.00,,,0.00,WeatherCatV1.12B45,2013-06-20 19:13:00,
2013-06-20 15:18:00,78.8,56.2,30.30,SSE,148,0.0,0.0,46,0.00,,,0.00,WeatherCatV1.12B45,2013-06-20 19:18:00,
2013-06-20 15:23:00,79.8,57.8,30.30,WNW,298,0.0,2.0,47,0.00,,,0.00,WeatherCatV1.12B45,2013-06-20 19:23:00,
2013-06-20 15:28:00,80.0,55.5,30.30,East,93,0.0,1.0,43,0.00,,,0.00,WeatherCatV1.12B45,2013-06-20 19:28:00,
2013-06-20 15:33:00,79.9,55.4,30.30,East,83,0.0,0.0,43,0.00,,,0.00,WeatherCatV1.12B45,2013-06-20 19:33:00,
2013-06-20 15:38:00,79.9,54.7,30.30,West,274,0.0,1.0,42,0.00,,,0.00,WeatherCatV1.12B45,2013-06-20 19:38:00,
2013-06-20 15:43:00,79.7,56.5,30.30,NNW,342,1.0,1.0,45,0.00,,,0.00,WeatherCatV1.12B45,2013-06-20 19:43:00,
2013-06-20 15:48:00,79.9,55.4,30.30,WNW,302,1.0,1.0,43,0.00,,,0.00,WeatherCatV1.12B45,2013-06-20 19:48:00,
2013-06-20 15:53:00,80.1,55.6,30.30,East,98,1.0,3.0,43,0.00,,,0.00,WeatherCatV1.12B45,2013-06-20 19:53:00,
2013-06-20 15:58:00,79.4,55.6,30.29,SW,222,1.0,1.0,44,0.00,,,0.00,WeatherCatV1.12B45,2013-06-20 19:58:00,
2013-06-20 16:03:00,79.4,54.9,30.29,NNW,342,0.0,1.0,43,0.00,,,0.00,WeatherCatV1.12B45,2013-06-20 20:03:00,
2013-06-20 16:08:00,79.4,56.2,30.29,NE,40,1.0,2.0,45,0.00,,,0.00,WeatherCatV1.12B45,2013-06-20 20:08:00,
2013-06-20 16:13:00,79.5,56.3,30.29,ESE,117,1.0,1.0,45,0.00,,,0.00,WeatherCatV1.12B45,2013-06-20 20:13:00,
2013-06-20 16:18:00,79.8,56.5,30.29,NE,48,0.0,1.0,45,0.00,,,0.00,WeatherCatV1.12B45,2013-06-20 20:18:00,
2013-06-20 16:23:00,80.6,55.4,30.29,East,101,0.0,2.0,42,0.00,,,0.00,WeatherCatV1.12B45,2013-06-20 20:23:00,
2013-06-20 16:28:00,80.3,54.4,30.29,East,98,2.0,2.0,41,0.00,,,0.00,WeatherCatV1.12B45,2013-06-20 20:28:00,
2013-06-20 16:33:00,79.9,55.4,30.29,NW,319,1.0,1.0,43,0.00,,,0.00,WeatherCatV1.12B45,2013-06-20 20:33:00,
2013-06-20 16:38:00,79.8,53.3,30.29,SE,142,0.0,3.0,40,0.00,,,0.00,WeatherCatV1.12B45,2013-06-20 20:38:00,
2013-06-20 16:43:00,79.7,54.6,30.29,NNW,344,0.0,1.0,42,0.00,,,0.00,WeatherCatV1.12B45,2013-06-20 20:43:00,
2013-06-20 16:48:00,79.7,54.6,30.29,NW,307,0.0,2.0,42,0.00,,,0.00,WeatherCatV1.12B45,2013-06-20 20:48:00,
2013-06-20 16:53:00,79.1,55.3,30.29,ESE,115,1.0,2.0,44,0.00,,,0.00,WeatherCatV1.12B45,2013-06-20 20:53:00,
2013-06-20 16:58:00,79.2,55.4,30.29,WSW,252,0.0,2.0,44,0.00,,,0.00,WeatherCatV1.12B45,2013-06-20 20:58:00,
2013-06-20 17:03:00,79.6,54.5,30.29,ESE,122,0.0,1.0,42,0.00,,,0.00,WeatherCatV1.12B45,2013-06-20 21:03:00,
2013-06-20 17:08:00,79.9,56.6,30.28,NNW,336,0.0,1.0,45,0.00,,,0.00,WeatherCatV1.12B45,2013-06-20 21:08:00,
2013-06-20 17:13:00,80.1,54.2,30.28,NNE,13,0.0,1.0,41,0.00,,,0.00,WeatherCatV1.12B45,2013-06-20 21:13:00,
2013-06-20 17:18:00,79.6,57.0,30.28,ESE,120,0.0,2.0,46,0.00,,,0.00,WeatherCatV1.12B45,2013-06-20 21:18:00,
2013-06-20 17:23:00,78.4,56.5,30.28,WNW,293,0.0,1.0,47,0.00,,,0.00,WeatherCatV1.12B45,2013-06-20 21:23:00,
2013-06-20 17:28:00,77.6,57.5,30.28,NNE,19,0.0,1.0,50,0.00,,,0.00,WeatherCatV1.12B45,2013-06-20 21:28:00,
2013-06-20 17:33:00,76.7,58.3,30.28,NNE,19,0.0,1.0,53,0.00,,,0.00,WeatherCatV1.12B45,2013-06-20 21:33:00,
2013-06-20 17:38:00,76.4,58.5,30.28,NNE,19,0.0,0.0,54,0.00,,,0.00,WeatherCatV1.12B45,2013-06-20 21:38:00,
2013-06-20 17:43:00,76.0,58.1,30.28,ENE,59,0.0,0.0,54,0.00,,,0.00,WeatherCatV1.12B45,2013-06-20 21:43:00,
2013-06-20 17:48:00,75.6,58.3,30.28,ENE,70,0.0,0.0,55,0.00,,,0.00,WeatherCatV1.12B45,2013-06-20 21:48:00,
2013-06-20 17:53:00,75.2,58.4,30.28,NNW,335,0.0,0.0,56,0.00,,,0.00,WeatherCatV1.12B45,2013-06-20 21:53:00,
2013-06-20 17:58:00,75.1,59.3,30.28,NNW,335,0.0,1.0,58,0.00,,,0.00,WeatherCatV1.12B45,2013-06-20 21:58:00,
2013-06-20 18:03:00,75.2,59.4,30.28,NNW,335,0.0,0.0,58,0.00,,,0.00,WeatherCatV1.12B45,2013-06-20 22:03:00,
2013-06-20 18:08:00,75.0,59.7,30.28,NNW,335,0.0,0.0,59,0.00,,,0.00,WeatherCatV1.12B45,2013-06-20 22:08:00,
2013-06-20 18:13:00,74.7,58.9,30.28,NNW,335,0.0,1.0,58,0.00,,,0.00,WeatherCatV1.12B45,2013-06-20 22:13:00,
2013-06-20 18:18:00,74.6,58.3,30.28,NNW,345,0.0,1.0,57,0.00,,,0.00,WeatherCatV1.12B45,2013-06-20 22:18:00,
2013-06-20 18:23:00,74.4,59.1,30.29,NNW,345,0.0,1.0,59,0.00,,,0.00,WeatherCatV1.12B45,2013-06-20 22:23:00,
2013-06-20 18:28:00,74.2,58.5,30.29,NNW,345,0.0,0.0,58,0.00,,,0.00,WeatherCatV1.12B45,2013-06-20 22:28:00,
2013-06-20 18:33:00,74.0,58.7,30.29,ENE,65,0.0,1.0,59,0.00,,,0.00,WeatherCatV1.12B45,2013-06-20 22:33:00,
2013-06-20 18:38:00,73.8,58.6,30.29,ENE,65,0.0,0.0,59,0.00,,,0.00,WeatherCatV1.12B45,2013-06-20 22:38:00,
2013-06-20 18:43:00,73.6,58.8,30.29,NW,307,0.0,1.0,60,0.00,,,0.00,WeatherCatV1.12B45,2013-06-20 22:43:00,
2013-06-20 18:48:00,73.2,58.5,30.29,NNW,330,0.0,0.0,60,0.00,,,0.00,WeatherCatV1.12B45,2013-06-20 22:48:00,
2013-06-20 18:53:00,73.1,57.9,30.29,North,3,0.0,3.0,59,0.00,,,0.00,WeatherCatV1.12B45,2013-06-20 22:53:00,
2013-06-20 18:58:00,72.8,58.6,30.29,SE,142,0.0,1.0,61,0.00,,,0.00,WeatherCatV1.12B45,2013-06-20 22:58:00,
2013-06-20 19:03:00,72.6,57.0,30.29,ESE,121,0.0,1.0,58,0.00,,,0.00,WeatherCatV1.12B45,2013-06-20 23:03:00,
2013-06-20 19:08:00,72.3,57.6,30.29,ESE,121,0.0,0.0,60,0.00,,,0.00,WeatherCatV1.12B45,2013-06-20 23:08:00,
2013-06-20 19:13:00,72.0,57.8,30.29,ENE,70,0.0,0.0,61,0.00,,,0.00,WeatherCatV1.12B45,2013-06-20 23:13:00,
2013-06-20 19:18:00,71.6,57.0,30.30,SE,129,0.0,1.0,60,0.00,,,0.00,WeatherCatV1.12B45,2013-06-20 23:18:00,
2013-06-20 19:23:00,71.4,57.2,30.29,SE,126,1.0,1.0,61,0.00,,,0.00,WeatherCatV1.12B45,2013-06-20 23:23:00,
2013-06-20 19:28:00,71.1,57.9,30.29,NNW,345,0.0,0.0,63,0.00,,,0.00,WeatherCatV1.12B45,2013-06-20 23:28:00,
2013-06-20 19:33:00,70.9,56.8,30.30,NNW,337,0.0,1.0,61,0.00,,,0.00,WeatherCatV1.12B45,2013-06-20 23:33:00,
2013-06-20 19:38:00,70.6,57.4,30.30,ESE,103,0.0,0.0,63,0.00,,,0.00,WeatherCatV1.12B45,2013-06-20 23:38:00,
2013-06-20 19:43:00,70.3,57.1,30.30,ESE,115,0.0,1.0,63,0.00,,,0.00,WeatherCatV1.12B45,2013-06-20 23:43:00,
2013-06-20 19:48:00,70.0,57.2,30.30,East,100,0.0,1.0,64,0.00,,,0.00,WeatherCatV1.12B45,2013-06-20 23:48:00,
2013-06-20 19:53:00,69.7,56.1,30.30,ESE,103,1.0,1.0,62,0.00,,,0.00,WeatherCatV1.12B45,2013-06-20 23:53:00,
2013-06-20 19:58:00,69.6,56.4,30.30,ESE,103,0.0,1.0,63,0.00,,,0.00,WeatherCatV1.12B45,2013-06-20 23:58:00,
2013-06-20 20:03:00,69.2,56.1,30.30,ESE,103,0.0,0.0,63,0.00,,,0.00,WeatherCatV1.12B45,2013-06-21 00:03:00,
2013-06-20 20:08:00,68.9,56.2,30.30,NNE,33,0.0,0.0,64,0.00,,,0.00,WeatherCatV1.12B45,2013-06-21 00:08:00,
2013-06-20 20:13:00,68.6,55.9,30.30,NNE,31,0.0,0.0,64,0.00,,,0.00,WeatherCatV1.12B45,2013-06-21 00:13:00,
2013-06-20 20:18:00,68.4,56.2,30.30,NNE,31,0.0,0.0,65,0.00,,,0.00,WeatherCatV1.12B45,2013-06-21 00:18:00,
2013-06-20 20:23:00,68.1,56.3,30.30,NNE,31,0.0,0.0,66,0.00,,,0.00,WeatherCatV1.12B45,2013-06-21 00:23:00,
2013-06-20 20:28:00,67.9,56.1,30.30,NNE,31,0.0,1.0,66,0.00,,,0.00,WeatherCatV1.12B45,2013-06-21 00:28:00,
2013-06-20 20:33:00,67.6,55.4,30.30,NNE,31,0.0,1.0,65,0.00,,,0.00,WeatherCatV1.12B45,2013-06-21 00:33:00,
2013-06-20 20:38:00,67.4,56.1,30.30,NNE,31,0.0,0.0,67,0.00,,,0.00,WeatherCatV1.12B45,2013-06-21 00:38:00,
2013-06-20 20:43:00,67.2,55.9,30.30,NNE,32,0.0,0.0,67,0.00,,,0.00,WeatherCatV1.12B45,2013-06-21 00:43:00,
2013-06-20 20:48:00,66.9,56.0,30.30,NNE,32,0.0,0.0,68,0.00,,,0.00,WeatherCatV1.12B45,2013-06-21 00:48:00,
2013-06-20 20:53:00,66.6,55.3,30.30,NNE,31,0.0,0.0,67,0.00,,,0.00,WeatherCatV1.12B45,2013-06-21 00:53:00,
2013-06-20 20:58:00,66.2,55.3,30.31,NNE,31,0.0,0.0,68,0.00,,,0.00,WeatherCatV1.12B45,2013-06-21 00:58:00,
2013-06-20 21:03:00,65.9,55.4,30.31,NNE,32,0.0,0.0,69,0.00,,,0.00,WeatherCatV1.12B45,2013-06-21 01:03:00,
2013-06-20 21:08:00,65.7,55.6,30.31,NNE,31,0.0,0.0,70,0.00,,,0.00,WeatherCatV1.12B45,2013-06-21 01:08:00,
2013-06-20 21:13:00,65.5,55.4,30.31,NNE,32,0.0,1.0,70,0.00,,,0.00,WeatherCatV1.12B45,2013-06-21 01:13:00,
2013-06-20 21:18:00,65.2,55.2,30.31,NNE,31,0.0,0.0,70,0.00,,,0.00,WeatherCatV1.12B45,2013-06-21 01:18:00,
2013-06-20 21:23:00,65.1,55.5,30.31,NNE,31,0.0,0.0,71,0.00,,,0.00,WeatherCatV1.12B45,2013-06-21 01:23:00,
2013-06-20 21:28:00,64.8,54.8,30.31,NNE,27,0.0,1.0,70,0.00,,,0.00,WeatherCatV1.12B45,2013-06-21 01:28:00,
2013-06-20 21:33:00,64.7,54.7,30.32,NNE,27,0.0,0.0,70,0.00,,,0.00,WeatherCatV1.12B45,2013-06-21 01:33:00,
2013-06-20 21:38:00,64.4,54.8,30.32,NNE,27,0.0,0.0,71,0.00,,,0.00,WeatherCatV1.12B45,2013-06-21 01:38:00,
2013-06-20 21:43:00,64.3,54.3,30.32,NW,320,0.0,0.0,70,0.00,,,0.00,WeatherCatV1.12B45,2013-06-21 01:43:00,
2013-06-20 21:48:00,64.1,54.5,30.32,NW,320,0.0,0.0,71,0.00,,,0.00,WeatherCatV1.12B45,2013-06-21 01:48:00,
2013-06-20 21:53:00,63.9,54.7,30.32,NW,320,0.0,0.0,72,0.00,,,0.00,WeatherCatV1.12B45,2013-06-21 01:53:00,
2013-06-20 21:58:00,63.7,54.5,30.32,NW,320,0.0,0.0,72,0.00,,,0.00,WeatherCatV1.12B45,2013-06-21 01:58:00,
2013-06-20 22:03:00,63.5,54.3,30.32,NW,320,0.0,0.0,72,0.00,,,0.00,WeatherCatV1.12B45,2013-06-21 02:03:00,
2013-06-20 22:08:00,63.4,54.6,30.32,NW,320,0.0,0.0,73,0.00,,,0.00,WeatherCatV1.12B45,2013-06-21 02:08:00,
2013-06-20 22:13:00,63.2,54.0,30.32,NW,320,0.0,0.0,72,0.00,,,0.00,WeatherCatV1.12B45,2013-06-21 02:13:00,
2013-06-20 22:18:00,63.0,53.8,30.32,NW,320,0.0,0.0,72,0.00,,,0.00,WeatherCatV1.12B45,2013-06-21 02:18:00,
2013-06-20 22:23:00,62.8,54.0,30.32,NW,320,0.0,0.0,73,0.00,,,0.00,WeatherCatV1.12B45,2013-06-21 02:23:00,
2013-06-20 22:28:00,62.7,53.9,30.32,NW,320,0.0,0.0,73,0.00,,,0.00,WeatherCatV1.12B45,2013-06-21 02:28:00,
2013-06-20 22:33:00,62.5,53.7,30.32,NW,320,0.0,0.0,73,0.00,,,0.00,WeatherCatV1.12B45,2013-06-21 02:33:00,
2013-06-20 22:38:00,62.3,53.5,30.32,NW,320,0.0,0.0,73,0.00,,,0.00,WeatherCatV1.12B45,2013-06-21 02:38:00,
2013-06-20 22:43:00,62.1,53.7,30.32,NW,320,0.0,0.0,74,0.00,,,0.00,WeatherCatV1.12B45,2013-06-21 02:43:00,
2013-06-20 22:48:00,61.9,53.9,30.32,NW,320,0.0,0.0,75,0.00,,,0.00,WeatherCatV1.12B45,2013-06-21 02:48:00,
2013-06-20 22:53:00,61.7,54.1,30.32,NW,320,0.0,0.0,76,0.00,,,0.00,WeatherCatV1.12B45,2013-06-21 02:53:00,
2013-06-20 22:58:00,61.5,53.9,30.32,NW,320,0.0,0.0,76,0.00,,,0.00,WeatherCatV1.12B45,2013-06-21 02:58:00,
2013-06-20 23:03:00,61.3,53.3,30.32,NW,320,0.0,0.0,75,0.00,,,0.00,WeatherCatV1.12B45,2013-06-21 03:03:00,
2013-06-20 23:08:00,61.1,53.5,30.32,NW,320,0.0,0.0,76,0.00,,,0.00,WeatherCatV1.12B45,2013-06-21 03:08:00,
2013-06-20 23:13:00,61.2,53.9,30.32,NW,320,0.0,0.0,77,0.00,,,0.00,WeatherCatV1.12B45,2013-06-21 03:13:00,
2013-06-20 23:18:00,61.2,53.9,30.32,NW,320,0.0,0.0,77,0.00,,,0.00,WeatherCatV1.12B45,2013-06-21 03:18:00,
2013-06-20 23:23:00,61.0,53.4,30.32,NW,320,0.0,0.0,76,0.00,,,0.00,WeatherCatV1.12B45,2013-06-21 03:23:00,
2013-06-20 23:28:00,60.8,53.5,30.32,NW,320,0.0,0.0,77,0.00,,,0.00,WeatherCatV1.12B45,2013-06-21 03:28:00,
2013-06-20 23:33:00,60.8,53.9,30.32,NW,320,0.0,0.0,78,0.00,,,0.00,WeatherCatV1.12B45,2013-06-21 03:33:00,
2013-06-20 23:38:00,60.7,53.4,30.32,NW,320,0.0,0.0,77,0.00,,,0.00,WeatherCatV1.12B45,2013-06-21 03:38:00,
2013-06-20 23:43:00,60.6,53.7,30.32,NW,320,0.0,0.0,78,0.00,,,0.00,WeatherCatV1.12B45,2013-06-21 03:43:00,
2013-06-20 23:48:00,60.5,53.6,30.32,NW,320,0.0,0.0,78,0.00,,,0.00,WeatherCatV1.12B45,2013-06-21 03:48:00,
2013-06-20 23:53:00,60.4,53.5,30.33,NW,320,0.0,0.0,78,0.00,,,0.00,WeatherCatV1.12B45,2013-06-21 03:53:00,
2013-06-20 23:58:00,60.4,53.9,30.33,NW,320,0.0,0.0,79,0.00,,,0.00,WeatherCatV1.12B45,2013-06-21 03:58:00,